Aktuell
News
Messwerte
Diagramme
Archiv
Wettervorhersage
Regen
Wettergefahren

Astro & Geo
Health
Pegel
Gästebuch
Kontakt
Impressum
Datenschutz
App

Bedeckt bei 2.3 °C – Luftdruck: 1021.9 hPa – Wind: SO 6.5 km/h
Messwerte von 16:00 Uhr; Warnsymbol: Datenbasis DWD; Wetterzustand powered by
Übersicht
Heute
Gestern
Vor 1 Jahr
Info
Gestern – Der Tag im Rückblick
 
Messwerte von Sonntag, 29.11.2020 🕯
Symbol
Zeitpunkt
Wetter-
zustand
Zeitpunkt
Temperatur
gefühlt
Zeitpunkt
Luftfeuchte
Taupunkt
Zeitpunkt
Luftdruck
Zeitpunkt
Wind
Zeitpunkt
Windböen
Max 15 Min.
Wind-
richtung
Zeitpunkt
Regen
Summe 1 h
Regenrate
Max 15 Min.
UV-Index
Max 15 Min.
Pegel Köln
Zeitpunkt
Warnlage
Zeitpunkt
00:15 Stark bewölkt2 2.4 °C
2.1 °C
88 %
0.6 °C
1023.7 hPa 4.7 km/h
1 Bft
13.0 km/h
3 Bft
OSO -
0.0 mm/h
0.0 151 cm
00:30 Stark bewölkt2 2.5 °C
1.5 °C
87 %
0.5 °C
1023.7 hPa 4.7 km/h
1 Bft
13.0 km/h
3 Bft
O -
0.0 mm/h
0.0 150 cm
00:45 Stark bewölkt2 2.5 °C
2.5 °C
87 %
0.5 °C
1023.6 hPa 3.2 km/h
1 Bft
13.0 km/h
3 Bft
SSO -
0.0 mm/h
0.0 151 cm
01:00 Stark bewölkt2 2.9 °C
1.3 °C
87 %
0.9 °C
1023.7 hPa 3.2 km/h
1 Bft
13.0 km/h
3 Bft
OSO 0.00 mm
0.0 mm/h
0.0 151 cm
01:15 Stark bewölkt2 2.6 °C
2.6 °C
87 %
0.6 °C
1023.6 hPa 3.2 km/h
1 Bft
9.7 km/h
2 Bft
OSO -
0.0 mm/h
0.0 150 cm
01:30 Stark bewölkt2 2.8 °C
2.5 °C
87 %
0.8 °C
1023.7 hPa 4.7 km/h
1 Bft
13.0 km/h
3 Bft
OSO -
0.0 mm/h
0.0 150 cm
01:45 Stark bewölkt2 3.0 °C
2.7 °C
87 %
1.0 °C
1023.7 hPa 1.4 km/h
1 Bft
9.7 km/h
2 Bft
O -
0.0 mm/h
0.0 151 cm
02:00 Stark bewölkt2 2.9 °C
2.9 °C
87 %
0.9 °C
1023.7 hPa 3.2 km/h
1 Bft
11.2 km/h
2 Bft
ONO 0.00 mm
0.0 mm/h
0.0 150 cm
02:15 Stark bewölkt2 2.9 °C
2.0 °C
87 %
0.9 °C
1023.7 hPa 3.2 km/h
1 Bft
7.9 km/h
2 Bft
NO -
0.0 mm/h
0.0 150 cm
02:30 Stark bewölkt2 2.9 °C
2.9 °C
88 %
1.0 °C
1023.8 hPa 1.4 km/h
1 Bft
6.5 km/h
2 Bft
SO -
0.0 mm/h
0.0 150 cm
02:45 Stark bewölkt2 3.1 °C
3.1 °C
88 %
1.2 °C
1023.8 hPa 1.4 km/h
1 Bft
4.7 km/h
1 Bft
OSO -
0.0 mm/h
0.0 150 cm
03:00 Stark bewölkt2 3.1 °C
2.8 °C
88 %
1.2 °C
1023.9 hPa 1.4 km/h
1 Bft
4.7 km/h
1 Bft
OSO 0.00 mm
0.0 mm/h
0.0 150 cm
03:15 Bedeckt2 3.2 °C
2.9 °C
87 %
1.2 °C
1023.9 hPa 1.4 km/h
1 Bft
4.7 km/h
1 Bft
O -
0.0 mm/h
0.0 150 cm
03:30 Bedeckt2 3.2 °C
3.2 °C
87 %
1.2 °C
1024.1 hPa 1.4 km/h
1 Bft
6.5 km/h
2 Bft
OSO -
0.0 mm/h
0.0 150 cm
03:45 Bedeckt2 3.3 °C
3.3 °C
87 %
1.3 °C
1024.1 hPa 4.7 km/h
1 Bft
16.2 km/h
3 Bft
OSO -
0.0 mm/h
0.0 150 cm
04:00 Bedeckt2 3.3 °C
3.0 °C
86 %
1.1 °C
1024.0 hPa 4.7 km/h
1 Bft
14.4 km/h
3 Bft
OSO 0.00 mm
0.0 mm/h
0.0 150 cm
04:15 Bedeckt2 3.2 °C
1.6 °C
85 %
0.9 °C
1024.1 hPa 4.7 km/h
1 Bft
13.0 km/h
3 Bft
OSO -
0.0 mm/h
0.0 150 cm
04:30 Bedeckt2 3.1 °C
2.1 °C
84 %
0.6 °C
1024.1 hPa 4.7 km/h
1 Bft
13.0 km/h
3 Bft
O -
0.0 mm/h
0.0 150 cm
04:45 Stark bewölkt2 3.1 °C
3.1 °C
84 %
0.6 °C
1024.0 hPa 3.2 km/h
1 Bft
11.2 km/h
2 Bft
O -
0.0 mm/h
0.0 149 cm
05:00 Stark bewölkt2 3.0 °C
3.0 °C
84 %
0.5 °C
1024.1 hPa 6.5 km/h
2 Bft
13.0 km/h
3 Bft
OSO 0.00 mm
0.0 mm/h
0.0 150 cm
05:15 Stark bewölkt3 2.9 °C
2.0 °C
84 %
0.4 °C
1024.1 hPa 4.7 km/h
1 Bft
13.0 km/h
3 Bft
SSO -
0.0 mm/h
0.0 149 cm
05:30 Stark bewölkt2 2.6 °C
2.3 °C
83 %
-0.1 °C
1024.1 hPa 6.5 km/h
2 Bft
19.4 km/h
3 Bft
SO -
0.0 mm/h
0.0 149 cm
05:45 Stark bewölkt2 2.5 °C
2.2 °C
83 %
-0.2 °C
1024.3 hPa 6.5 km/h
2 Bft
19.4 km/h
3 Bft
S -
0.0 mm/h
0.0 149 cm
06:00 Stark bewölkt2 2.1 °C
0.9 °C
82 %
-0.8 °C
1024.3 hPa 4.7 km/h
1 Bft
14.4 km/h
3 Bft
OSO 0.00 mm
0.0 mm/h
0.0 149 cm
06:15 Stark bewölkt2 1.9 °C
-0.5 °C
83 %
-0.8 °C
1024.2 hPa 4.7 km/h
1 Bft
16.2 km/h
3 Bft
OSO -
0.0 mm/h
0.0 149 cm
06:30 Stark bewölkt2 1.9 °C
0.7 °C
83 %
-0.8 °C
1024.3 hPa 6.5 km/h
2 Bft
13.0 km/h
3 Bft
OSO -
0.0 mm/h
0.0 149 cm
06:45 Stark bewölkt2 1.9 °C
-1.0 °C
82 %
-1.0 °C
1024.4 hPa 6.5 km/h
2 Bft
19.4 km/h
3 Bft
OSO -
0.0 mm/h
0.0 148 cm
07:00 Stark bewölkt2 1.8 °C
-0.1 °C
82 %
-1.1 °C
1024.5 hPa 6.5 km/h
2 Bft
14.4 km/h
3 Bft
SO 0.00 mm
0.0 mm/h
0.0 149 cm
07:15 Stark bewölkt3 1.7 °C
1.3 °C
82 %
-1.2 °C
1024.6 hPa 7.9 km/h
2 Bft
16.2 km/h
3 Bft
OSO -
0.0 mm/h
0.0 148 cm
07:30 Stark bewölkt2 1.6 °C
0.4 °C
82 %
-1.3 °C
1024.8 hPa 7.9 km/h
2 Bft
17.6 km/h
3 Bft
OSO -
0.0 mm/h
0.0 149 cm
07:45 Stark bewölkt2 1.4 °C
-2.5 °C
81 %
-1.7 °C
1025.0 hPa 9.7 km/h
2 Bft
20.9 km/h
4 Bft
OSO -
0.0 mm/h
0.0 149 cm
08:00 Stark bewölkt2 1.4 °C
-2.5 °C
81 %
-1.7 °C
1025.1 hPa 7.9 km/h
2 Bft
17.6 km/h
3 Bft
O 0.00 mm
0.0 mm/h
0.0 149 cm
08:15 Stark bewölkt2 1.3 °C
-3.2 °C
82 %
-1.6 °C
1025.1 hPa 7.9 km/h
2 Bft
19.4 km/h
3 Bft
OSO -
0.0 mm/h
0.0 149 cm
08:30 Stark bewölkt2 1.4 °C
-0.6 °C
82 %
-1.5 °C
1025.3 hPa 7.9 km/h
2 Bft
19.4 km/h
3 Bft
SO -
0.0 mm/h
0.0 149 cm
08:45 Bedeckt2 1.4 °C
-0.6 °C
81 %
-1.7 °C
1025.4 hPa 7.9 km/h
2 Bft
20.9 km/h
4 Bft
O -
0.0 mm/h
0.0 149 cm
09:00 Bedeckt2 1.6 °C
-0.4 °C
81 %
-1.5 °C
1025.7 hPa 3.2 km/h
1 Bft
19.4 km/h
3 Bft
ONO 0.00 mm
0.0 mm/h
0.0 150 cm
09:15 Stark bewölkt2 1.7 °C
1.3 °C
80 %
-1.6 °C
1025.8 hPa 6.5 km/h
2 Bft
17.6 km/h
3 Bft
O -
0.0 mm/h
0.0 149 cm
09:30 Stark bewölkt3 1.6 °C
1.2 °C
80 %
-1.6 °C
1026.0 hPa 7.9 km/h
2 Bft
17.6 km/h
3 Bft
S -
0.0 mm/h
0.0 149 cm
09:45 Stark bewölkt2 1.5 °C
-1.0 °C
79 %
-1.9 °C
1026.1 hPa 6.5 km/h
2 Bft
19.4 km/h
3 Bft
S -
0.0 mm/h
0.0 149 cm
10:00 Stark bewölkt2 1.6 °C
-1.3 °C
79 %
-1.8 °C
1026.3 hPa 4.7 km/h
1 Bft
17.6 km/h
3 Bft
SO 0.00 mm
0.0 mm/h
0.0 149 cm
10:15 Stark bewölkt2 1.4 °C
-1.6 °C
79 %
-2.0 °C
1026.4 hPa 6.5 km/h
2 Bft
19.4 km/h
3 Bft
OSO -
0.0 mm/h
0.0 149 cm
10:30 Stark bewölkt2 1.4 °C
-1.9 °C
79 %
-2.0 °C
1026.4 hPa 6.5 km/h
2 Bft
19.4 km/h
3 Bft
O -
0.0 mm/h
0.0 149 cm
10:45 Stark bewölkt2 1.8 °C
1.8 °C
78 %
-1.8 °C
1026.3 hPa 6.5 km/h
2 Bft
16.2 km/h
3 Bft
SSO -
0.0 mm/h
0.0 149 cm
11:00 Stark bewölkt2 1.8 °C
0.6 °C
78 %
-1.8 °C
1026.4 hPa 6.5 km/h
2 Bft
17.6 km/h
3 Bft
OSO 0.00 mm
0.0 mm/h
0.6 150 cm
11:15 Stark bewölkt2 1.8 °C
0.6 °C
77 %
-2.0 °C
1026.4 hPa 4.7 km/h
1 Bft
16.2 km/h
3 Bft
OSO -
0.0 mm/h
0.8 149 cm
11:30 Stark bewölkt2 1.8 °C
-1.4 °C
77 %
-2.0 °C
1026.3 hPa 6.5 km/h
2 Bft
19.4 km/h
3 Bft
OSO -
0.0 mm/h
0.6 149 cm
11:45 Stark bewölkt3 2.1 °C
0.2 °C
77 %
-1.7 °C
1026.3 hPa 6.5 km/h
2 Bft
14.4 km/h
3 Bft
O -
0.0 mm/h
0.6 150 cm
12:00 Stark bewölkt3 2.1 °C
-1.0 °C
76 %
-1.8 °C
1026.1 hPa 7.9 km/h
2 Bft
17.6 km/h
3 Bft
OSO 0.00 mm
0.0 mm/h
0.5 150 cm
12:15 Stark bewölkt2 2.5 °C
0.8 °C
74 %
-1.8 °C
1026.1 hPa 7.9 km/h
2 Bft
17.6 km/h
3 Bft
SO -
0.0 mm/h
0.8 150 cm
12:30 Stark bewölkt2 2.1 °C
0.9 °C
75 %
-2.0 °C
1026.1 hPa 6.5 km/h
2 Bft
19.4 km/h
3 Bft
O -
0.0 mm/h
0.8 149 cm
12:45 Stark bewölkt2 2.3 °C
0.6 °C
78 %
-1.2 °C
1026.1 hPa 7.9 km/h
2 Bft
17.6 km/h
3 Bft
ONO -
0.0 mm/h
0.8 150 cm
13:00 Stark bewölkt2 2.4 °C
1.4 °C
74 %
-1.8 °C
1026.0 hPa 6.5 km/h
2 Bft
20.9 km/h
4 Bft
SSW 0.00 mm
0.0 mm/h
0.8 150 cm
13:15 Stark bewölkt2 3.1 °C
3.1 °C
72 %
-1.6 °C
1026.0 hPa 7.9 km/h
2 Bft
17.6 km/h
3 Bft
OSO -
0.0 mm/h
0.9 150 cm
13:30 Stark bewölkt2 2.6 °C
-0.4 °C
72 %
-2.0 °C
1026.0 hPa 6.5 km/h
2 Bft
17.6 km/h
3 Bft
O -
0.0 mm/h
0.9 150 cm
13:45 Stark bewölkt2 2.9 °C
2.0 °C
74 %
-1.4 °C
1026.0 hPa 4.7 km/h
1 Bft
19.4 km/h
3 Bft
S -
0.0 mm/h
0.8 150 cm
14:00 Stark bewölkt2 3.5 °C
1.5 °C
71 %
-1.4 °C
1026.0 hPa 7.9 km/h
2 Bft
17.6 km/h
3 Bft
SO 0.00 mm
0.0 mm/h
0.8 150 cm
14:15 Stark bewölkt2 3.5 °C
1.5 °C
70 %
-1.6 °C
1026.1 hPa 6.5 km/h
2 Bft
17.6 km/h
3 Bft
SO -
0.0 mm/h
0.6 150 cm
14:30 Stark bewölkt2 3.1 °C
2.8 °C
71 %
-1.7 °C
1026.1 hPa 6.5 km/h
2 Bft
17.6 km/h
3 Bft
SO -
0.0 mm/h
0.0 150 cm
14:45 Stark bewölkt2 2.6 °C
2.6 °C
72 %
-2.0 °C
1026.1 hPa 7.9 km/h
2 Bft
19.4 km/h
3 Bft
S -
0.0 mm/h
0.0 150 cm
15:00 Stark bewölkt2 2.9 °C
0.3 °C
71 %
-1.9 °C
1026.0 hPa 6.5 km/h
2 Bft
16.2 km/h
3 Bft
SO 0.00 mm
0.0 mm/h
0.0 150 cm
15:15 Stark bewölkt2 3.0 °C
0.5 °C
71 %
-1.8 °C
1026.0 hPa 4.7 km/h
1 Bft
16.2 km/h
3 Bft
OSO -
0.0 mm/h
0.0 150 cm
15:30 Stark bewölkt2 3.0 °C
3.0 °C
71 %
-1.8 °C
1026.1 hPa 6.5 km/h
2 Bft
17.6 km/h
3 Bft
OSO -
0.0 mm/h
0.0 150 cm
15:45 Stark bewölkt3 2.3 °C
-0.7 °C
71 %
-2.4 °C
1026.0 hPa 6.5 km/h
2 Bft
16.2 km/h
3 Bft
O -
0.0 mm/h
0.0 150 cm
16:00 Stark bewölkt3 2.0 °C
1.6 °C
73 %
-2.4 °C
1026.1 hPa 4.7 km/h
1 Bft
13.0 km/h
3 Bft
O 0.00 mm
0.0 mm/h
0.0 150 cm
16:15 Stark bewölkt3 1.7 °C
0.5 °C
74 %
-2.5 °C
1026.3 hPa 4.7 km/h
1 Bft
16.2 km/h
3 Bft
O -
0.0 mm/h
0.0 151 cm
16:30 Wolkig3 1.5 °C
1.5 °C
75 %
-2.5 °C
1026.4 hPa 6.5 km/h
2 Bft
14.4 km/h
3 Bft
O -
0.0 mm/h
0.0 151 cm
16:45 Wolkig3 1.3 °C
0.8 °C
76 %
-2.5 °C
1026.4 hPa 4.7 km/h
1 Bft
11.2 km/h
2 Bft
O -
0.0 mm/h
0.0 151 cm
17:00 Wolkig3 1.2 °C
1.2 °C
76 %
-2.6 °C
1026.6 hPa 3.2 km/h
1 Bft
11.2 km/h
2 Bft
O 0.00 mm
0.0 mm/h
0.0 151 cm
17:15 Stark bewölkt3 1.1 °C
1.1 °C
77 %
-2.6 °C
1026.6 hPa 3.2 km/h
1 Bft
9.7 km/h
2 Bft
O -
0.0 mm/h
0.0 151 cm
17:30 Stark bewölkt3 1.1 °C
0.6 °C
77 %
-2.6 °C
1026.6 hPa 4.7 km/h
1 Bft
11.2 km/h
2 Bft
SO -
0.0 mm/h
0.0 151 cm
17:45 Wolkig3 1.1 °C
0.6 °C
77 %
-2.6 °C
1026.8 hPa 4.7 km/h
1 Bft
13.0 km/h
3 Bft
OSO -
0.0 mm/h
0.0 151 cm
18:00 Wolkig3 1.1 °C
-0.2 °C
77 %
-2.6 °C
1026.9 hPa 3.2 km/h
1 Bft
6.5 km/h
2 Bft
O 0.00 mm
0.0 mm/h
0.0 151 cm
18:15 Wolkig3 1.1 °C
-0.2 °C
77 %
-2.6 °C
1026.9 hPa 4.7 km/h
1 Bft
11.2 km/h
2 Bft
OSO -
0.0 mm/h
0.0 151 cm
18:30 Wolkig3 1.1 °C
1.1 °C
77 %
-2.6 °C
1026.9 hPa 4.7 km/h
1 Bft
11.2 km/h
2 Bft
NO -
0.0 mm/h
0.0 151 cm
18:45 Wolkig3 0.8 °C
0.3 °C
78 %
-2.7 °C
1027.0 hPa 4.7 km/h
1 Bft
11.2 km/h
2 Bft
OSO -
0.0 mm/h
0.0 151 cm
19:00 Leicht bewölkt2 0.6 °C
0.1 °C
79 %
-2.7 °C
1027.1 hPa 3.2 km/h
1 Bft
6.5 km/h
2 Bft
OSO 0.00 mm
0.0 mm/h
0.0 151 cm
19:15 Leicht bewölkt2 0.4 °C
-0.2 °C
79 %
-2.9 °C
1027.0 hPa 3.2 km/h
1 Bft
6.5 km/h
2 Bft
OSO -
0.0 mm/h
0.0 151 cm
19:30 Leicht bewölkt2 0.3 °C
-0.3 °C
80 %
-2.8 °C
1027.1 hPa 4.7 km/h
1 Bft
9.7 km/h
2 Bft
OSO -
0.0 mm/h
0.0 152 cm
19:45 Leicht bewölkt2 0.2 °C
0.2 °C
80 %
-2.9 °C
1027.2 hPa 1.4 km/h
1 Bft
4.7 km/h
1 Bft
O -
0.0 mm/h
0.0 151 cm
20:00 Leicht bewölkt2 0.0 °C
-1.4 °C
81 %
-2.9 °C
1027.1 hPa 3.2 km/h
1 Bft
6.5 km/h
2 Bft
O 0.00 mm
0.0 mm/h
0.0 151 cm
20:15 Wolkenlos2 0.0 °C
-0.6 °C
81 %
-2.9 °C
1027.2 hPa 1.4 km/h
1 Bft
9.7 km/h
2 Bft
OSO -
0.0 mm/h
0.0 151 cm
20:30 Wolkenlos2 -0.2 °C
-0.2 °C
82 %
-3.0 °C
1027.3 hPa 3.2 km/h
1 Bft
6.5 km/h
2 Bft
O -
0.0 mm/h
0.0 151 cm
20:45 Wolkenlos2 -0.3 °C
-0.9 °C
82 %
-3.1 °C
1027.3 hPa 3.2 km/h
1 Bft
6.5 km/h
2 Bft
OSO -
0.0 mm/h
0.0 151 cm
21:00 Wolkenlos2 -0.4 °C
-0.4 °C
82 %
-3.2 °C
1027.3 hPa 3.2 km/h
1 Bft
6.5 km/h
2 Bft
OSO 0.00 mm
0.0 mm/h
0.0 151 cm
21:15 Wolkenlos2 -0.5 °C
-1.2 °C
82 %
-3.3 °C
1027.2 hPa 3.2 km/h
1 Bft
6.5 km/h
2 Bft
O -
0.0 mm/h
0.0 152 cm
21:30 Wolkenlos2 -0.7 °C
-1.4 °C
83 %
-3.3 °C
1027.4 hPa 3.2 km/h
1 Bft
6.5 km/h
2 Bft
O -
0.0 mm/h
0.0 150 cm
21:45 Wolkenlos3 -0.8 °C
-0.8 °C
83 %
-3.4 °C
1027.5 hPa 1.4 km/h
1 Bft
4.7 km/h
1 Bft
O -
0.0 mm/h
0.0 151 cm
22:00 Wolkenlos2 -0.8 °C
-0.8 °C
84 %
-3.2 °C
1027.4 hPa 3.2 km/h
1 Bft
6.5 km/h
2 Bft
OSO 0.00 mm
0.0 mm/h
0.0 150 cm
22:15 Wolkenlos2 -0.9 °C
-2.4 °C
84 %
-3.3 °C
1027.5 hPa 3.2 km/h
1 Bft
9.7 km/h
2 Bft
OSO -
0.0 mm/h
0.0 150 cm
22:30 Wolkenlos2 -0.9 °C
-2.4 °C
84 %
-3.3 °C
1027.4 hPa 4.7 km/h
1 Bft
11.2 km/h
2 Bft
OSO -
0.0 mm/h
0.0 150 cm
22:45 Wolkenlos2 -1.0 °C
-4.7 °C
84 %
-3.4 °C
1027.2 hPa 3.2 km/h
1 Bft
9.7 km/h
2 Bft
O -
0.0 mm/h
0.0 150 cm
23:00 Wolkenlos2 -0.9 °C
-3.2 °C
84 %
-3.3 °C
1027.2 hPa 4.7 km/h
1 Bft
14.4 km/h
3 Bft
OSO 0.00 mm
0.0 mm/h
0.0 150 cm
23:15 Wolkenlos2 -0.9 °C
-1.6 °C
83 %
-3.5 °C
1027.1 hPa 4.7 km/h
1 Bft
11.2 km/h
2 Bft
SO -
0.0 mm/h
0.0 150 cm
23:30 Wolkenlos2 -0.9 °C
-1.6 °C
83 %
-3.5 °C
1027.2 hPa 4.7 km/h
1 Bft
9.7 km/h
2 Bft
SO -
0.0 mm/h
0.0 150 cm
23:45 Wolkenlos2 -1.1 °C
-2.6 °C
84 %
-3.5 °C
1027.2 hPa 3.2 km/h
1 Bft
9.7 km/h
2 Bft
OSO -
0.0 mm/h
0.0 150 cm
00:00 Wolkenlos2 -0.9 °C
-2.4 °C
84 %
-3.3 °C
1027.2 hPa 4.7 km/h
1 Bft
9.7 km/h
2 Bft
SO 0.00 mm
0.0 mm/h
0.0 150 cm
Datenbasis Wetterzustand: ¹ Wetterstation Köln-Nippes (Stellwerk), ² powered by , ³ powered by OpenWeatherMap, CC BY-SA 4.0; Warnlage: DWD, Pegelonline, LANUV; Pegel Köln: Pegelonline
 
Extrem- und Durchschnittswerte
  Temperatur Luftfeuchte Luftdruck Wind Windböen Wind-
richtung
Regen UV-Index Pegel Köln KKT
Min

Max

Ø
-1.1 °C
22:48 Uhr
3.6 °C
13:59 Uhr
1.7 °C
69.0 %
14:01 Uhr
89.0 %
00:52 Uhr
80.1 %
1023.6 hPa
00:00 Uhr
1027.5 hPa
21:40 Uhr
1025.7 hPa
 
 
9.7 km/h
07:25 Uhr
5.0 km/h
 
 
20.9 km/h
07:32 Uhr
 
 
 
OSO
 
 
 
 
0.00 mm
 
 
 
 
0.9
12:56 Uhr
 
148 cm
06:45 Uhr
152 cm
19:30 Uhr
 
FT KT
  gefühlt Taupunkt   Wind Windböen   Regenrate Ozon Sonne Mond
Min

Max

Ø
-5.4 °C
22:52 Uhr
3.6 °C
13:59 Uhr
 
-3.6 °C
23:34 Uhr
1.3 °C
03:00 Uhr
-1.5 °C
   
 
2 Bft
07:25 Uhr
5.0 km/h
 
 
4 Bft
07:32 Uhr
 
   
 
0.0 mm/h
00:00 Uhr
 
 

––
––:–– Uhr
 
▲ 08:11 Uhr
▼ 16:30 Uhr
▼ 06:56 Uhr
▲ 16:11 Uhr
KKT = Klimatologischer Kenntag: ET = Eistag, FT = Frosttag, KT = Kalter Tag, ST = Sommertag, HT = Hitzetag, TN = Tropennacht, NT = Niederschlagstag, SH = Schneehöhe (Max Tag); Datenbasis Ozon: LANUV, Land NRW, dl-de/by-2-0
 
Detaillierte Warnlage
FROST
28.11.20, 20:00 Uhr bis 29.11.20, 11:00 Uhr
Es tritt leichter Frost zwischen 0 °C und -3 °C auf.
FROST
29.11.20, 19:00 Uhr bis 30.11.20, 11:00 Uhr
Es tritt mäßiger Frost zwischen -2 °C und -6 °C auf. In Bodennähe wird mäßiger Frost zwischen -4 °C und -8 °C erwartet.














29.11.20

29.11.20

29.11.20

29.11.20

29.11.20

29.11.20

29.11.20
Datenbasis: DWD, Pegelonline, LANUV
Es ist ein Fehler aufgetreten.